| time (UTC) | temp F | wind direction | speed MPH | gust MPH | rain 1hr in | rain 24hr in | rain mn in | humidity % | barometer mb |
| 20260902100810 | 60 | 292 | 0.0 | 0.0 | 0.00 | 0.13 | 0.00 | 95 | 1024.3 |
| 20260902094909 | 60 | 292 | 0.0 | 0.0 | 0.00 | 0.13 | 0.00 | 94 | 1024.2 |
| 20260902093909 | 60 | 292 | 0.0 | 0.0 | 0.00 | 0.13 | 0.00 | 94 | 1024.0 |
| 20260902092909 | 60 | 292 | 0.0 | 0.0 | 0.00 | 0.13 | 0.00 | 94 | 1024.1 |
| 20260902091910 | 59 | 292 | 0.0 | 0.0 | 0.00 | 0.13 | 0.00 | 94 | 1023.5 |
| 20260902090909 | 60 | 292 | 0.0 | 0.0 | 0.00 | 0.13 | 0.00 | 94 | 1023.8 |
| 20260902085008 | 59 | 292 | 0.0 | 0.0 | 0.00 | 0.13 | 0.00 | 93 | 1023.8 |
| 20260902084008 | 59 | 292 | 0.0 | 0.0 | 0.00 | 0.13 | 0.00 | 94 | 1023.5 |
| 20260902083007 | 59 | 292 | 0.0 | 0.0 | 0.00 | 0.13 | 0.00 | 94 | 1023.6 |
| 20260902082010 | 59 | 292 | 0.0 | 0.0 | 0.00 | 0.13 | 0.00 | 93 | 1023.5 |
| 20260902081009 | 59 | 292 | 0.0 | 0.0 | 0.00 | 0.13 | 0.00 | 94 | 1023.7 |
| 20260902080008 | 59 | 292 | 0.0 | 0.0 | 0.00 | 0.13 | 0.00 | 94 | 1023.6 |
| 20260902074010 | 60 | 292 | 0.0 | 0.0 | 0.00 | 0.13 | 0.00 | 94 | 1023.6 |
| 20260902073910 | 60 | 292 | 0.0 | 0.0 | 0.00 | 0.13 | 0.00 | 94 | 1023.8 |
| 20260902072907 | 60 | 292 | 0.0 | 0.0 | 0.00 | 0.13 | 0.00 | 93 | 1023.8 |
| 20260902070909 | 60 | 292 | 0.0 | 0.0 | 0.00 | 0.13 | 0.00 | 94 | 1023.8 |
| 20260902065910 | 60 | 292 | 0.0 | 0.0 | 0.00 | 0.13 | 0.00 | 94 | 1023.6 |
| 20260902064909 | 60 | 292 | 0.0 | 0.0 | 0.00 | 0.13 | 0.00 | 94 | 1023.7 |
| 20260902063007 | 60 | 292 | 0.0 | 0.0 | 0.00 | 0.13 | 0.00 | 94 | 1023.4 |
| 20260902062010 | 60 | 292 | 0.0 | 0.0 | 0.00 | 0.13 | 0.00 | 93 | 1023.6 |
| 20260902060208 | 59 | 292 | 0.0 | 0.0 | 0.00 | 0.13 | 0.00 | 92 | 1023.5 |
| 20260902055210 | 60 | 292 | 0.0 | 0.0 | 0.00 | 0.13 | 0.00 | 93 | 1023.5 |
| 20260902054210 | 59 | 292 | 0.0 | 0.0 | 0.00 | 0.13 | 0.00 | 93 | 1023.6 |
| 20260902053308 | 59 | 292 | 0.0 | 0.0 | 0.00 | 0.13 | 0.00 | 93 | 1023.6 |
| 20260902052408 | 59 | 292 | 0.0 | 0.0 | 0.00 | 0.13 | 0.00 | 93 | 1023.5 |
| 20260902051407 | 59 | 292 | 0.0 | 0.0 | 0.00 | 0.13 | 0.00 | 92 | 1023.4 |
| 20260902050410 | 59 | 292 | 0.0 | 0.0 | 0.00 | 0.13 | 0.00 | 93 | 1023.3 |
| 20260902044409 | 59 | 292 | 0.0 | 0.0 | 0.00 | 0.13 | 0.00 | 93 | 1023.2 |
| 20260902043408 | 59 | 292 | 0.0 | 0.0 | 0.00 | 0.13 | 0.00 | 93 | 1022.9 |
| 20260902042425 | 59 | 292 | 0.0 | 0.0 | 0.00 | 0.13 | 0.00 | 93 | 1022.8 |
| 20260902040408 | 59 | 292 | 0.0 | 0.0 | 0.00 | 0.13 | 0.00 | 92 | 1022.6 |
| 20260902035420 | 59 | 292 | 0.0 | 0.0 | 0.00 | 0.13 | 0.13 | 91 | 1022.6 |
| 20260902034418 | 60 | 292 | 0.0 | 0.0 | 0.00 | 0.13 | 0.13 | 92 | 1022.3 |
| 20260902033417 | 60 | 292 | 0.0 | 0.0 | 0.00 | 0.13 | 0.13 | 91 | 1022.1 |
| 20260902032417 | 60 | 292 | 0.0 | 0.0 | 0.00 | 0.13 | 0.13 | 91 | 1022.0 |
| 20260902031516 | 60 | 292 | 0.0 | 0.0 | 0.00 | 0.13 | 0.13 | 91 | 1022.0 |
| 20260902030516 | 60 | 292 | 0.0 | 0.0 | 0.00 | 0.13 | 0.13 | 92 | 1022.3 |
| 20260902025517 | 60 | 292 | 0.0 | 0.0 | 0.00 | 0.13 | 0.13 | 91 | 1022.4 |
| 20260902024517 | 60 | 292 | 0.0 | 0.0 | 0.00 | 0.13 | 0.13 | 92 | 1022.2 |
| 20260902023516 | 60 | 292 | 0.0 | 0.0 | 0.00 | 0.13 | 0.13 | 91 | 1022.3 |
| 20260902020518 | 60 | 292 | 0.0 | 0.0 | 0.00 | 0.13 | 0.13 | 90 | 1022.5 |
| 20260902015518 | 60 | 292 | 0.0 | 0.0 | 0.00 | 0.13 | 0.13 | 91 | 1022.4 |
| 20260902014616 | 60 | 292 | 0.0 | 0.0 | 0.00 | 0.13 | 0.13 | 91 | 1022.4 |
| 20260902013618 | 60 | 292 | 0.0 | 0.0 | 0.00 | 0.13 | 0.13 | 90 | 1022.3 |
| 20260902012716 | 60 | 292 | 0.0 | 0.0 | 0.00 | 0.13 | 0.13 | 90 | 1022.2 |
| 20260902011720 | 60 | 292 | 0.0 | 0.0 | 0.00 | 0.13 | 0.13 | 91 | 1022.0 |
| 20260902010816 | 60 | 292 | 0.0 | 0.0 | 0.00 | 0.13 | 0.13 | 91 | 1022.4 |
| 20260902005817 | 60 | 292 | 0.0 | 0.0 | 0.00 | 0.13 | 0.13 | 91 | 1022.3 |
| 20260902004817 | 60 | 292 | 0.0 | 0.0 | 0.00 | 0.13 | 0.13 | 91 | 1022.1 |
| 20260902003816 | 60 | 292 | 0.0 | 0.0 | 0.00 | 0.13 | 0.13 | 90 | 1021.9 |
| 20260902002817 | 60 | 292 | 0.0 | 0.0 | 0.00 | 0.13 | 0.13 | 90 | 1021.7 |
| 20260902001716 | 60 | 292 | 0.0 | 0.0 | 0.00 | 0.13 | 0.13 | 90 | 1021.8 |
| 20260902000718 | 60 | 292 | 0.0 | 0.0 | 0.00 | 0.13 | 0.13 | 90 | 1021.8 |
| 20260901235720 | 60 | 292 | 0.0 | 0.0 | 0.00 | 0.13 | 0.13 | 90 | 1021.6 |
| 20260901234816 | 60 | 292 | 0.0 | 0.0 | 0.00 | 0.13 | 0.13 | 90 | 1021.7 |
| 20260901232819 | 61 | 292 | 0.0 | 0.0 | 0.00 | 0.13 | 0.13 | 89 | 1021.8 |
| 20260901231918 | 61 | 270 | 0.0 | 0.0 | 0.00 | 0.13 | 0.13 | 90 | 1021.8 |
| 20260901231015 | 61 | 180 | 0.0 | 0.0 | 0.00 | 0.13 | 0.13 | 90 | 1021.8 |
| 20260901230017 | 61 | 225 | 0.0 | 0.0 | 0.00 | 0.13 | 0.13 | 90 | 1021.8 |
| 20260901225019 | 61 | 225 | 0.0 | 0.0 | 0.00 | 0.13 | 0.13 | 89 | 1021.6 |
| 20260901224018 | 61 | 270 | 0.0 | 0.0 | 0.00 | 0.13 | 0.13 | 90 | 1021.4 |
| 20260901223115 | 62 | 251 | 0.0 | 0.0 | 0.00 | 0.13 | 0.13 | 90 | 1021.5 |
| 20260901221217 | 62 | 227 | 2.0 | 4.0 | 0.00 | 0.13 | 0.13 | 90 | 1021.6 |
| 20260901220219 | 62 | 202 | 0.0 | 0.0 | 0.00 | 0.13 | 0.13 | 90 | 1021.4 |
| 20260901215318 | 62 | 294 | 0.0 | 1.0 | 0.00 | 0.13 | 0.13 | 91 | 1021.3 |
| 20260901214415 | 63 | 214 | 0.0 | 1.0 | 0.00 | 0.13 | 0.13 | 91 | 1021.3 |
| 20260901211418 | 63 | 253 | 1.0 | 2.0 | 0.00 | 0.13 | 0.13 | 90 | 1021.3 |
| 20260901210516 | 63 | 163 | 0.0 | 0.0 | 0.00 | 0.13 | 0.13 | 91 | 1021.2 |
| 20260901205615 | 63 | 244 | 1.0 | 2.0 | 0.00 | 0.13 | 0.13 | 91 | 1021.2 |
| 20260901204619 | 64 | 103 | 0.0 | 0.0 | 0.00 | 0.13 | 0.13 | 91 | 1021.1 |
| 20260901203616 | 64 | 216 | 0.0 | 1.0 | 0.00 | 0.13 | 0.13 | 91 | 1020.9 |
| 20260901202617 | 64 | 204 | 0.0 | 1.0 | 0.00 | 0.13 | 0.13 | 90 | 1020.6 |
| 20260901201717 | 64 | 270 | 0.0 | 1.0 | 0.00 | 0.13 | 0.13 | 91 | 1020.6 |
| 20260901200718 | 64 | 276 | 0.0 | 1.0 | 0.00 | 0.13 | 0.13 | 90 | 1020.4 |
| 20260901194816 | 64 | 112 | 0.0 | 0.0 | 0.02 | 0.13 | 0.13 | 91 | 1020.6 |
| 20260901193832 | 64 | 247 | 0.0 | 0.0 | 0.03 | 0.13 | 0.13 | 90 | 1020.6 |
| 20260901191817 | 64 | 207 | 1.0 | 3.0 | 0.08 | 0.13 | 0.13 | 91 | 1020.6 |
| 20260901190818 | 64 | 107 | 0.0 | 1.0 | 0.08 | 0.13 | 0.13 | 91 | 1020.6 |
| 20260901185816 | 65 | 84 | 0.0 | 1.0 | 0.08 | 0.12 | 0.12 | 91 | 1020.4 |
| 20260901184818 | 65 | 83 | 1.0 | 2.0 | 0.08 | 0.11 | 0.11 | 91 | 1020.5 |
| 20260901183818 | 65 | 186 | 1.0 | 3.0 | 0.08 | 0.10 | 0.10 | 91 | 1020.7 |
| 20260901182817 | 65 | 22 | 0.0 | 0.0 | 0.07 | 0.08 | 0.08 | 90 | 1020.6 |
| 20260901181916 | 65 | 225 | 0.0 | 1.0 | 0.05 | 0.05 | 0.05 | 91 | 1020.5 |
| 20260901180918 | 65 | 202 | 3.0 | 3.0 | 0.05 | 0.05 | 0.05 | 90 | 1020.2 |
| 20260901180015 | 66 | 22 | 0.0 | 1.0 | 0.04 | 0.04 | 0.04 | 91 | 1020.2 |
| 20260901175017 | 66 | 90 | 0.0 | 0.0 | 0.03 | 0.03 | 0.03 | 90 | 1019.9 |
| 20260901174115 | 66 | 22 | 0.0 | 0.0 | 0.02 | 0.02 | 0.02 | 90 | 1019.8 |
| 20260901171131 | 0 | 0 | 0.0 | 0.0 | 0.00 | 0.00 | 0.00 | 100 | |
| 20260901170216 | 67 | 180 | 1.0 | 1.0 | 0.00 | 0.00 | 0.00 | 90 | 1020.0 |
| 20260901163215 | 68 | 43 | 1.0 | 1.0 | 0.00 | 0.00 | 0.00 | 91 | 1019.9 |
| 20260901162214 | 68 | 352 | 1.0 | 2.0 | 0.00 | 0.00 | 0.00 | 91 | 1019.9 |
| 20260901155217 | 68 | 91 | 0.0 | 1.0 | 0.00 | 0.00 | 0.00 | 92 | 1019.9 |
| 20260901154316 | 67 | 112 | 1.0 | 1.0 | 0.00 | 0.00 | 0.00 | 91 | 1019.8 |
| 20260901153316 | 67 | 112 | 0.0 | 0.0 | 0.00 | 0.00 | 0.00 | 91 | 1019.9 |
| 20260901152316 | 67 | 69 | 1.0 | 2.0 | 0.00 | 0.00 | 0.00 | 91 | 1019.9 |
| 20260901150316 | 67 | 202 | 0.0 | 0.0 | 0.00 | 0.00 | 0.00 | 91 | 1020.3 |
| 20260901145316 | 0 | 0 | 0.0 | 0.0 | 0.00 | 0.00 | 0.00 | 100 | |
| 20260901144415 | 67 | 67 | 0.0 | 0.0 | 0.00 | 0.00 | 0.00 | 90 | 1020.1 |
| 20260901143417 | 67 | 45 | 2.0 | 2.0 | 0.00 | 0.00 | 0.00 | 90 | 1020.2 |
| 20260901142514 | 66 | 90 | 1.0 | 1.0 | 0.00 | 0.00 | 0.00 | 90 | 1020.4 |
| 20260901135514 | 0 | 0 | 0.0 | 0.0 | 0.00 | 0.00 | 0.00 | 100 | |
| 20260901134614 | 0 | 0 | 0.0 | 0.0 | 0.00 | 0.00 | 0.00 | 100 | |
| 20260901133614 | 0 | 0 | 0.0 | 0.0 | 0.00 | 0.00 | 0.00 | 100 | |
| 20260901132615 | 0 | 0 | 0.0 | 0.0 | 0.00 | 0.00 | 0.00 | 100 | |
| 20260901131616 | 0 | 0 | 0.0 | 0.0 | 0.00 | 0.00 | 0.00 | 100 | |
| 20260901130630 | 0 | 0 | 0.0 | 0.0 | 0.00 | 0.00 | 0.00 | 100 | |
| 20260901124617 | 0 | 0 | 0.0 | 0.0 | 0.00 | 0.00 | 0.00 | 100 | |
| 20260901123630 | 0 | 0 | 0.0 | 0.0 | 0.00 | 0.00 | 0.00 | 100 | |
| 20260901122615 | 0 | 0 | 0.0 | 0.0 | 0.00 | 0.00 | 0.00 | 100 | |
| 20260901121615 | 0 | 0 | 0.0 | 0.0 | 0.00 | 0.00 | 0.00 | 100 | |
| 20260901120615 | 0 | 0 | 0.0 | 0.0 | 0.00 | 0.00 | 0.00 | 100 | |
| 20260901114615 | 0 | 0 | 0.0 | 0.0 | 0.00 | 0.00 | 0.00 | 100 | |
| 20260901113614 | 0 | 0 | 0.0 | 0.0 | 0.00 | 0.00 | 0.00 | 100 | |
| 20260901112616 | 0 | 0 | 0.0 | 0.0 | 0.00 | 0.00 | 0.00 | 100 | |
| 20260901111714 | 0 | 0 | 0.0 | 0.0 | 0.00 | 0.00 | 0.00 | 100 | |
| 20260901110713 | 0 | 0 | 0.0 | 0.0 | 0.00 | 0.00 | 0.00 | 100 | |
| 20260901105717 | 0 | 0 | 0.0 | 0.0 | 0.00 | 0.00 | 0.00 | 100 | |
| 20260901104715 | 0 | 0 | 0.0 | 0.0 | 0.00 | 0.00 | 0.00 | 100 | |
| 20260901103716 | 0 | 0 | 0.0 | 0.0 | 0.00 | 0.00 | 0.00 | 100 | |
| 20260901102814 | 0 | 0 | 0.0 | 0.0 | 0.00 | 0.00 | 0.00 | 100 |